Tracking 25710 objects as of 6-Jul-2022
HD Live streaming from Space Station
objects crossing your sky now

FENGYUN 1C DEB

Track FENGYUN 1C DEB now!
10-day predictions


NORAD ID: 30404
Int'l Code: 1999-025ADT
Perigee: 857.4 km
Apogee: 1,440.7 km
Inclination: 99.8 °
Period: 108.2 minutes
Semi major axis: 7520 km
RCS: 0.0064 m2 (small)
Launch date: May 10, 1999
Source: People's Republic of China (PRC)
Launch site: Taiyaun Space Center, China (TSC)

Note: This is SATELLITE DEBRIS
aabbcc
Your satellite tracking list
Your tracking list is empty




NASA's NSSDC Master Catalog

Two Line Element Set (TLE):
1 30404U 99025ADT 22186.27962272  .00000672  00000-0  99087-3 0  9993
2 30404  99.7871 313.7622 0387800 278.8391 107.8084 13.31283042413005
Source of the keplerian elements: AFSPC